| time (UTC) | temp F | wind direction | speed knots | gust knots | rain 1hr in | rain 24hr in | rain mn in | humidity % | barometer mb |
| 20260906113050 | 73 | 0 | 0.0 | 0.0 | 0.00 | 0.00 | 0.00 | 94 | 1014.3 |
| 20260906111550 | 73 | 0 | 0.0 | 0.0 | 0.00 | 0.00 | 0.00 | 93 | 1014.1 |
| 20260906110044 | 73 | 0 | 0.0 | 0.0 | 0.00 | 0.00 | 0.00 | 93 | 1013.9 |
| 20260906104544 | 73 | 0 | 0.0 | 0.0 | 0.00 | 0.00 | 0.00 | 93 | 1013.8 |
| 20260906103050 | 73 | 0 | 0.0 | 0.0 | 0.00 | 0.00 | 0.00 | 93 | 1013.7 |
| 20260906101544 | 73 | 0 | 0.0 | 0.0 | 0.00 | 0.00 | 0.00 | 93 | 1013.6 |
| 20260906100044 | 73 | 0 | 0.0 | 0.0 | 0.00 | 0.00 | 0.00 | 93 | 1013.6 |
| 20260906094545 | 74 | 0 | 0.0 | 0.0 | 0.00 | 0.00 | 0.00 | 93 | 1013.4 |
| 20260906093051 | 74 | 0 | 0.0 | 0.9 | 0.00 | 0.00 | 0.00 | 93 | 1013.7 |
| 20260906091546 | 74 | 0 | 0.0 | 0.0 | 0.00 | 0.00 | 0.00 | 93 | 1013.4 |
| 20260906090051 | 74 | 0 | 0.0 | 0.0 | 0.00 | 0.00 | 0.00 | 93 | 1013.6 |
| 20260906084545 | 74 | 0 | 0.0 | 0.0 | 0.00 | 0.00 | 0.00 | 93 | 1013.5 |
| 20260906083048 | 74 | 0 | 0.0 | 0.0 | 0.00 | 0.00 | 0.00 | 92 | 1013.6 |
| 20260906081547 | 74 | 0 | 0.0 | 0.0 | 0.00 | 0.00 | 0.00 | 93 | 1013.6 |
| 20260906080047 | 74 | 0 | 0.0 | 0.0 | 0.00 | 0.00 | 0.00 | 93 | 1013.5 |
| 20260906074542 | 74 | 0 | 0.0 | 1.7 | 0.00 | 0.00 | 0.00 | 93 | 1013.8 |
| 20260906073045 | 75 | 0 | 0.0 | 1.7 | 0.00 | 0.00 | 0.00 | 93 | 1014.1 |
| 20260906071548 | 75 | 202 | 0.9 | 1.7 | 0.00 | 0.00 | 0.00 | 92 | 1013.9 |
| 20260906070045 | 75 | 0 | 0.0 | 0.9 | 0.00 | 0.00 | 0.00 | 92 | 1013.2 |
| 20260906064550 | 75 | 0 | 0.0 | 0.0 | 0.00 | 0.00 | 0.00 | 92 | 1013.5 |
| 20260906063046 | 75 | 0 | 0.0 | 0.0 | 0.00 | 0.00 | 0.00 | 92 | 1013.1 |
| 20260906061550 | 75 | 0 | 0.0 | 0.0 | 0.00 | 0.00 | 0.00 | 92 | 1013.4 |
| 20260906060054 | 75 | 0 | 0.0 | 0.9 | 0.00 | 0.00 | 0.00 | 92 | 1013.6 |
| 20260906054549 | 75 | 0 | 0.0 | 0.9 | 0.00 | 0.00 | 0.00 | 92 | 1013.6 |
| 20260906053045 | 75 | 0 | 0.0 | 0.9 | 0.00 | 0.00 | 0.00 | 92 | 1013.9 |
| 20260906051545 | 75 | 0 | 0.0 | 0.0 | 0.00 | 0.00 | 0.00 | 92 | 1014.0 |
| 20260906050046 | 75 | 0 | 0.0 | 0.0 | 0.00 | 0.00 | 0.00 | 92 | 1014.1 |
| 20260906044546 | 75 | 0 | 0.0 | 0.0 | 0.00 | 0.00 | 0.00 | 92 | 1014.2 |
| 20260906043044 | 75 | 0 | 0.0 | 0.0 | 0.00 | 0.00 | 0.00 | 91 | 1014.5 |
| 20260906041544 | 75 | 0 | 0.0 | 0.0 | 0.00 | 0.00 | 0.00 | 91 | 1014.6 |
| 20260906040044 | 75 | 0 | 0.0 | 0.0 | 0.00 | 0.00 | 0.00 | 91 | 1014.5 |
| 20260906034559 | 75 | 0 | 0.0 | 0.0 | 0.00 | 0.00 | 0.00 | 90 | 1014.6 |
| 20260906033045 | 75 | 0 | 0.0 | 0.0 | 0.00 | 0.00 | 0.00 | 90 | 1014.4 |
| 20260906031544 | 76 | 0 | 0.0 | 0.0 | 0.00 | 0.00 | 0.00 | 89 | 1014.5 |
| 20260906030050 | 76 | 0 | 0.0 | 0.0 | 0.00 | 0.00 | 0.00 | 89 | 1014.2 |
| 20260906024554 | 76 | 0 | 0.0 | 0.0 | 0.00 | 0.00 | 0.00 | 88 | 1014.2 |
| 20260906023044 | 76 | 0 | 0.0 | 0.0 | 0.00 | 0.00 | 0.00 | 88 | 1013.8 |
| 20260906021546 | 77 | 0 | 0.0 | 0.0 | 0.00 | 0.00 | 0.00 | 87 | 1013.7 |
| 20260906020053 | 77 | 0 | 0.0 | 0.0 | 0.00 | 0.00 | 0.00 | 87 | 1013.6 |
| 20260906014549 | 77 | 0 | 0.0 | 0.0 | 0.00 | 0.00 | 0.00 | 86 | 1013.6 |
| 20260906013044 | 78 | 0 | 0.0 | 0.0 | 0.00 | 0.00 | 0.00 | 86 | 1013.6 |
| 20260906011545 | 78 | 0 | 0.0 | 0.0 | 0.00 | 0.00 | 0.00 | 86 | 1013.6 |
| 20260906010111 | 78 | 0 | 0.0 | 0.0 | 0.00 | 0.00 | 0.00 | 85 | 1013.4 |
| 20260906004553 | 79 | 0 | 0.0 | 0.0 | 0.00 | 0.00 | 0.00 | 84 | 1013.5 |
| 20260906003045 | 79 | 0 | 0.0 | 0.9 | 0.00 | 0.00 | 0.00 | 84 | 1013.5 |
| 20260906001559 | 80 | 0 | 0.0 | 0.0 | 0.00 | 0.00 | 0.00 | 83 | 1013.5 |
| 20260906000044 | 80 | 0 | 0.0 | 0.9 | 0.00 | 0.00 | 0.00 | 82 | 1013.5 |
| 20260905234542 | 81 | 0 | 0.0 | 0.9 | 0.00 | 0.00 | 0.00 | 82 | 1013.5 |
| 20260905233045 | 82 | 0 | 0.0 | 0.0 | 0.00 | 0.00 | 0.00 | 81 | 1013.3 |
| 20260905231549 | 82 | 0 | 0.0 | 0.9 | 0.00 | 0.00 | 0.00 | 80 | 1013.4 |
| 20260905230045 | 82 | 0 | 0.0 | 0.9 | 0.00 | 0.00 | 0.00 | 79 | 1013.3 |
| 20260905224546 | 81 | 0 | 0.0 | 0.9 | 0.00 | 0.00 | 0.00 | 78 | 1013.3 |
| 20260905223054 | 81 | 0 | 0.0 | 1.7 | 0.00 | 0.00 | 0.00 | 80 | 1013.3 |
| 20260905221544 | 81 | 0 | 0.0 | 0.0 | 0.00 | 0.00 | 0.00 | 80 | 1013.3 |
| 20260905220044 | 81 | 0 | 0.0 | 0.0 | 0.00 | 0.00 | 0.00 | 80 | 1013.3 |
| 20260905214549 | 81 | 0 | 0.0 | 0.0 | 0.00 | 0.00 | 0.00 | 79 | 1013.7 |
| 20260905213043 | 80 | 0 | 0.0 | 0.0 | 0.00 | 0.00 | 0.00 | 80 | 1013.8 |
| 20260905211546 | 81 | 207 | 0.0 | 1.7 | 0.00 | 0.00 | 0.00 | 80 | 1013.9 |
| 20260905210059 | 81 | 155 | 0.9 | 1.7 | 0.00 | 0.00 | 0.00 | 79 | 1013.8 |
| 20260905204547 | 81 | 0 | 0.0 | 0.9 | 0.00 | 0.00 | 0.00 | 79 | 1013.7 |
| 20260905203042 | 82 | 0 | 0.0 | 1.7 | 0.00 | 0.00 | 0.00 | 77 | 1014.0 |
| 20260905201546 | 82 | 155 | 0.0 | 1.7 | 0.00 | 0.00 | 0.00 | 78 | 1014.4 |
| 20260905200110 | 82 | 146 | 0.0 | 1.7 | 0.00 | 0.00 | 0.00 | 78 | 1014.5 |
| 20260905194544 | 82 | 147 | 0.9 | 2.6 | 0.00 | 0.00 | 0.00 | 77 | 1014.5 |
| 20260905193044 | 82 | 131 | 0.0 | 0.9 | 0.00 | 0.00 | 0.00 | 78 | 1014.6 |
| 20260905191546 | 83 | 131 | 0.0 | 0.9 | 0.00 | 0.00 | 0.00 | 77 | 1014.7 |
| 20260905190044 | 84 | 0 | 0.0 | 0.9 | 0.00 | 0.00 | 0.00 | 74 | 1014.8 |
| 20260905184603 | 85 | 0 | 0.0 | 1.7 | 0.00 | 0.00 | 0.00 | 73 | 1015.2 |
| 20260905183046 | 87 | 0 | 0.0 | 2.6 | 0.00 | 0.00 | 0.00 | 69 | 1015.1 |
| 20260905181547 | 90 | 0 | 0.0 | 2.6 | 0.00 | 0.00 | 0.00 | 66 | 1014.9 |
| 20260905180044 | 92 | 277 | 0.9 | 3.5 | 0.00 | 0.00 | 0.00 | 62 | 1015.0 |
| 20260905174547 | 93 | 0 | 0.9 | 6.1 | 0.00 | 0.00 | 0.00 | 59 | 1015.3 |
| 20260905173050 | 93 | 0 | 0.0 | 5.2 | 0.00 | 0.00 | 0.00 | 58 | 1015.0 |
| 20260905171544 | 92 | 140 | 0.9 | 3.5 | 0.00 | 0.00 | 0.00 | 61 | 1015.1 |
| 20260905170043 | 91 | 119 | 1.7 | 5.2 | 0.00 | 0.00 | 0.00 | 62 | 1015.2 |
| 20260905164547 | 90 | 113 | 0.9 | 5.2 | 0.00 | 0.00 | 0.00 | 69 | 1015.7 |
| 20260905163045 | 89 | 94 | 1.7 | 3.5 | 0.00 | 0.00 | 0.00 | 69 | 1015.7 |
| 20260905161544 | 88 | 180 | 0.9 | 2.6 | 0.00 | 0.00 | 0.00 | 71 | 1015.8 |
| 20260905160044 | 88 | 184 | 0.0 | 1.7 | 0.00 | 0.00 | 0.00 | 71 | 1015.7 |
| 20260905154551 | 87 | 0 | 0.0 | 2.6 | 0.00 | 0.00 | 0.00 | 73 | 1015.7 |
| 20260905153045 | 86 | 65 | 0.9 | 2.6 | 0.00 | 0.00 | 0.00 | 74 | 1016.0 |
| 20260905151558 | 85 | 0 | 0.0 | 2.6 | 0.00 | 0.00 | 0.00 | 75 | 1016.0 |
| 20260905150049 | 84 | 0 | 0.9 | 3.5 | 0.00 | 0.00 | 0.00 | 77 | 1016.2 |
| 20260905144547 | 83 | 131 | 0.9 | 3.5 | 0.00 | 0.00 | 0.00 | 79 | 1016.3 |
| 20260905143046 | 82 | 157 | 0.0 | 1.7 | 0.00 | 0.00 | 0.00 | 81 | 1016.2 |
| 20260905141546 | 82 | 0 | 0.0 | 2.6 | 0.00 | 0.00 | 0.00 | 82 | 1016.4 |
| 20260905140044 | 81 | 0 | 0.0 | 2.6 | 0.00 | 0.00 | 0.00 | 84 | 1016.4 |
| 20260905134542 | 81 | 0 | 0.0 | 1.7 | 0.00 | 0.00 | 0.00 | 85 | 1016.5 |
| 20260905133047 | 80 | 0 | 0.0 | 0.0 | 0.00 | 0.00 | 0.00 | 87 | 1016.6 |
| 20260905131555 | 79 | 0 | 0.0 | 0.0 | 0.00 | 0.00 | 0.00 | 89 | 1016.8 |
| 20260905130044 | 78 | 136 | 0.0 | 1.7 | 0.00 | 0.00 | 0.00 | 93 | 1016.8 |
| 20260905124544 | 77 | 136 | 0.0 | 0.9 | 0.00 | 0.00 | 0.00 | 95 | 1016.5 |
| 20260905123106 | 75 | 0 | 0.0 | 0.0 | 0.00 | 0.00 | 0.00 | 94 | 1016.6 |
| 20260905121545 | 75 | 0 | 0.0 | 0.0 | 0.00 | 0.00 | 0.00 | 94 | 1016.7 |
| 20260905120045 | 75 | 0 | 0.0 | 0.0 | 0.00 | 0.00 | 0.00 | 94 | 1016.5 |
| 20260905114546 | 75 | 0 | 0.0 | 0.0 | 0.00 | 0.00 | 0.00 | 94 | 1016.2 |